banner cross window.jpg

Welcome

During Covid-19

Our building remains closed.

But our church is open.

Check this website for details.

 

 

Login





Sunday Worship

 

Sunday morning worship is where you will sense the heartbeat of Hope United. It is the time of the week when all generations come together in community.

  •  To express the wholeness of our faith in praise and thanksgiving.
  •  To seek support amid doubts, fears and sorrows.
  •  To share times of joy and celebration.
  •  To explore life’s questions in the context of our faith.

Services at Hope United blend traditional and contemporary elements in word, action and music to provide food for the soul no matter where you are on your faith journey. All are welcome here…

 

The Order of Service and Announcements for each Sunday Service are available by date in the listing below.

 

 

File Size Added Hits
2019-11-24.pdf 285.36 KB NOV 24, 2019 Download 102


2019-11-17.pdf 268.42 KB NOV 17, 2019 Download 91


2019-11-10.pdf 319.5 KB NOV 10, 2019 Download 108


2019-11-03.pdf 242.78 KB NOV 03, 2019 Download 96


2019-10-27.pdf 350.94 KB OCT 27, 2019 Download 136


2019-10-20.pdf 193.56 KB OCT 20, 2019 Download 102


2019-10-06 World Communion.pdf 207.76 KB OCT 06, 2019 Download 113


2019-09-29.pdf 167.58 KB SEP 29, 2019 Download 124


2019-09-22.pdf 169.04 KB SEP 22, 2019 Download 769


2019-09-15.pdf 550.08 KB SEP 15, 2019 Download 124


2019-09-08 Announcements.pdf 149.19 KB SEP 08, 2019 Download 88


2019-08-04.pdf 147.13 KB AUG 04, 2019 Download 148


2019-07-28.pdf 333.58 KB JUL 28, 2019 Download 108


2019-07-21.pdf 191.7 KB JUL 21, 2019 Download 124


2019-07-14.pdf 204 KB JUL 14, 2019 Download 121


2019-07-07.pdf 216.77 KB JUL 07, 2019 Download 103


2019-06-30.pdf 142.98 KB JUN 30, 2019 Download 121


2019-06-23.pdf 307.03 KB JUN 23, 2019 Download 141


2019-06-16.pdf 249.98 KB JUN 16, 2019 Download 128


2019-06-09 Outdoor.pdf 133.2 KB JUN 09, 2019 Download 136




For DOWNLOAD is used JotLoader component © V. Kanich 2007-2009